Cozumel, Mexico

11:26 PM EST on August 17, 2017 (GMT -0500)
Cozumel

Weather History for MMCZ - January, 2013

Change the Weather History Date:

Tuesday, January 1, 2013

  Actual Average Record
Temperature  
Mean Temperature 71 °F -  
Max Temperature 78 °F 80 °F 86 °F (1999)
Min Temperature 64 °F 69 °F 62 °F (2015)
Cooling Degree Days 6    
Growing Degree Days 21 (Base 50)    
Moisture  
Dew Point 61 °F    
Average Humidity 71    
Maximum Humidity 83    
Minimum Humidity 54    
Precipitation  
Precipitation 0.00 in - - ()
Sea Level Pressure  
Sea Level Pressure 30.01 in    
Wind  
Wind Speed 4 mph ()    
Max Wind Speed 14 mph    
Max Gust Speed -    
Visibility 7.6 miles    
Events      
Averages and records for this station are not official NWS values.
T = Trace of Precipitation, MM = Missing Value Source: Averaged Metar Reports

Daily Weather History Graph

Daily Weather History Graph

Search for Another Location

Airport or City:

Trip Planner

Search our weather history database for the weather conditions in past years. The results will help you decide how hot, cold, wet, or windy it might be!

Date:

Astronomy

Jan. 01, 2013 Rise Set
Actual Time 6:23 AM CST 5:19 PM CST
Civil Twilight 5:59 AM CST 5:43 PM CST
Nautical Twilight 5:32 AM CST 6:10 PM CST
Astronomical Twilight 5:05 AM CST 6:37 PM CST
Moon 9:13 PM CST (1/1) 9:08 AM CST (1/1)
Length of Visible Light 11h 43m
Length of Day
10h 55m
Waning Gibbous, 83% of the Moon is Illuminated
Jan 1
Waning Gibbous
Jan 4
Last Quarter
Jan 11
New
Jan 18
First Quarter
Jan 26
Full

Hourly Weather History & Observations

Time (CST) Temp. Dew Point Humidity Pressure Visibility Wind Dir Wind Speed Gust Speed Precip Events Conditions
12:47 AM 64.4 °F 57.2 °F 77% 30.05 in 7.0 mi East 3.5 mph - N/A   Scattered Clouds
1:43 AM 66.2 °F 60.8 °F 83% 30.04 in 7.0 mi ENE 3.5 mph - N/A   Scattered Clouds
2:42 AM 66.2 °F 59.0 °F 78% 30.06 in 7.0 mi East 3.5 mph - N/A   Scattered Clouds
4:02 AM 66.2 °F 60.8 °F 83% 30.03 in 7.0 mi Calm Calm - N/A   Scattered Clouds
4:40 AM 66.2 °F 59.0 °F 78% 30.02 in 7.0 mi Calm Calm - N/A   Clear
5:58 AM 64.4 °F 57.2 °F 77% 30.00 in 7.0 mi Calm Calm - N/A   Partly Cloudy
6:45 AM 64.4 °F 57.2 °F 77% 30.04 in 8.0 mi Calm Calm - N/A   Partly Cloudy
7:44 AM 69.8 °F 64.4 °F 83% 30.06 in 8.0 mi East 4.6 mph - N/A   Partly Cloudy
8:48 AM 75.2 °F 62.6 °F 65% 30.10 in 8.0 mi East 12.7 mph - N/A   Partly Cloudy
9:55 AM 77.0 °F 64.4 °F 65% 30.06 in 8.0 mi ESE 13.8 mph - N/A   Scattered Clouds
10:42 AM 78.8 °F 64.4 °F 61% 30.05 in 8.0 mi ESE 11.5 mph - N/A   Mostly Cloudy
11:49 AM 78.8 °F 64.4 °F 61% 29.97 in 8.0 mi ESE 9.2 mph - N/A   Mostly Cloudy
12:50 PM 77.0 °F 62.6 °F 61% 29.99 in 8.0 mi ESE 10.4 mph - N/A   Mostly Cloudy
1:43 PM 78.8 °F 60.8 °F 54% 29.96 in 8.0 mi ESE 11.5 mph - N/A   Mostly Cloudy
2:52 PM 78.8 °F 60.8 °F 54% 29.96 in 8.0 mi ESE 11.5 mph - N/A   Scattered Clouds
3:51 PM 77.0 °F 60.8 °F 57% 29.94 in 8.0 mi SE 6.9 mph - N/A   Scattered Clouds
4:40 PM 75.2 °F 62.6 °F 65% 29.94 in 8.0 mi ESE 6.9 mph - N/A   Scattered Clouds
5:48 PM 71.6 °F 60.8 °F 69% 29.92 in 8.0 mi ESE 4.6 mph - N/A   Scattered Clouds
6:47 PM 71.6 °F 64.4 °F 78% 29.97 in 8.0 mi Calm Calm - N/A   Scattered Clouds
7:44 PM 69.8 °F 60.8 °F 73% 29.99 in 8.0 mi Calm Calm - N/A   Scattered Clouds
8:42 PM 68.0 °F 60.8 °F 78% 30.01 in 7.0 mi Calm Calm - N/A   Partly Cloudy
9:40 PM 66.2 °F 60.8 °F 83% 29.99 in 7.0 mi Calm Calm - N/A   Scattered Clouds
10:44 PM 68.0 °F 60.8 °F 78% 29.99 in 7.0 mi East 5.8 mph - N/A   Mostly Cloudy